Location: Zürich
(47.3769°N, 8.5417°E)
Time: 10:32:36
(UTC+02:00)

ISS - Pass Details

Date: 21 May 2021
Orbit: 417 x 422 km, 51.6° (Epoch: 13 June)

Event Time Altitude Azimuth Distance (km) Brightness Sun altitude
Rises 23:43:59 0° 289° (WNW) 2,367 0.7 -18.7°
Reaches altitude 10° 23:46:09 10° 297° (WNW) 1,503 -0.2 -18.9°
Maximum altitude 23:49:24 44° 10° (N) 597 -2.6 -19.1°
Enters shadow 23:51:19 21° 74° (ENE) 1,011 -1.9 -19.2°
